SM7GXQ Weather Reports


time (UTC)temp
C
wind
direction
speed
KPH
gust
KPH
rain 1hr
cm
rain 24hr
cm
rain mn
cm
humidity
%
barometer
mb
20260903071504 15 200 4.8 12.9 0.00 0.00 0.00 85 1010.6
20260903063005 15 230 4.8 14.5 0.00 0.00 0.00 85 1010.7
20260903054504 15 222 6.4 14.5 0.00 0.00 0.00 87 1010.7
20260903053005 15 233 4.8 12.9 0.00 0.00 0.00 87 1010.7
20260903051505 14 232 6.4 16.1 0.00 0.00 0.00 87 1010.7
20260903044504 14 253 4.8 12.9 0.00 0.00 0.00 88 1010.6
20260903041504 14 188 3.2 11.3 0.00 0.00 0.00 91 1010.7
20260903034504 14 238 3.2 11.3 0.00 0.00 0.00 91 1010.8
20260903030004 15 211 1.6 16.1 0.00 0.00 0.00 90 1010.9
20260903024504 15 236 4.8 19.3 0.00 0.00 0.00 90 1010.9
20260903014504 15 249 3.2 12.9 0.00 0.00 0.00 90 1010.9
20260903011504 15 233 3.2 9.7 0.00 0.00 0.00 90 1011.0
20260903004504 15 247 1.6 12.9 0.00 0.00 0.00 90 1011.0
20260903001505 15 212 3.2 12.9 0.00 0.00 0.00 90 1011.0
20260902223004 16 218 4.8 14.5 0.00 0.00 0.00 89 1011.0
20260902221505 16 230 4.8 16.1 0.00 0.00 0.00 89 1011.0
20260902214504 16 244 3.2 14.5 0.00 0.00 0.00 88 1011.0
20260902211504 16 248 3.2 16.1 0.00 0.00 0.00 88 1010.8
20260902204504 16 266 3.2 9.7 0.00 0.00 0.00 87 1010.8
20260902203005 16 245 1.6 16.1 0.00 0.00 0.00 86 1010.8
20260902201505 16 258 3.2 14.5 0.00 0.00 0.00 86 1010.8
20260902200004 17 209 4.8 16.1 0.00 0.00 0.00 86 1010.9
20260902194505 17 204 3.2 20.9 0.00 0.00 0.00 85 1010.8
20260902190004 17 210 8.0 22.5 0.00 0.00 0.00 84 1010.8
20260902181504 17 247 3.2 19.3 0.00 0.00 0.00 85 1010.7
20260902180007 17 228 4.8 19.3 0.00 0.00 0.00 85 1010.7
20260902174504 18 226 4.8 16.1 0.00 0.00 0.00 84 1010.5
20260902170004 18 189 1.6 14.5 0.00 0.00 0.00 82 1010.6
20260902161504 19 199 4.8 14.5 0.00 0.00 0.00 80 1010.6
20260902153005 20 195 6.4 16.1 0.00 0.00 0.00 79 1010.6
20260902151504 20 212 6.4 14.5 0.00 0.03 0.00 79 1010.7
20260902144504 21 236 4.8 19.3 0.00 0.03 0.00 70 1010.8
20260902143005 22 206 6.4 19.3 0.00 0.03 0.00 70 1010.7
20260902141504 22 241 3.2 16.1 0.00 0.03 0.00 70 1010.8
20260902131504 21 204 6.4 19.3 0.00 0.05 0.00 74 1010.8
20260902130004 21 199 4.8 22.5 0.00 0.05 0.00 75 1011.1
20260902124504 21 215 3.2 12.9 0.00 0.05 0.00 74 1011.1
20260902123005 21 198 3.2 14.5 0.00 0.05 0.00 73 1011.4
20260902120004 21 241 4.8 16.1 0.00 0.05 0.00 74 1011.4
20260902114505 20 232 6.4 14.5 0.00 0.05 0.00 76 1011.7
20260902113005 20 259 4.8 14.5 0.00 0.05 0.00 76 1011.8
20260902111504 20 227 4.8 14.5 0.00 0.05 0.00 77 1011.8
20260902101505 18 238 3.2 14.5 0.00 0.05 0.00 82 1012.1
20260902100004 18 242 3.2 19.3 0.00 0.05 0.00 81 1012.0
20260902094504 18 239 4.8 14.5 0.00 0.05 0.00 81 1012.1
20260902091504 18 223 4.8 12.9 0.00 0.05 0.00 81 1012.1
20260902090005 18 221 4.8 14.5 0.00 0.05 0.00 80 1012.1
20260902084505 18 228 3.2 12.9 0.00 0.05 0.00 80 1012.1
20260902083005 17 237 3.2 14.5 0.00 0.05 0.00 82 1012.1